Notices

What's New in latest Release from April 7th, 2021:

- Updated Glossary, including Speed of Maximum Gust, and Total Hourly Precipitation

- Updated national and regional climate services offices contacts and prices information

- Addition of station inventory lists for 1981-2010, 1971-2000, and 1961-1990 Normals.

If you haven't already, please take our survey and provide feedback about our website: https://eccc.sondage-survey.ca/f/LanguageSelection.aspx?s=442ca660-fcf1-47c0-95a9-59707d6fd709

Hourly Data Report for April 17, 2021

MIRAMICHI RCS
NEW BRUNSWICK
Current Station Operator: ECCC - MSC

47°00'34.000" N
65°27'54.000" W
33.00 m
8100989
71744
ACQ

Download Data

Hourly Data (April 2021)
Hourly Data Report for April 17, 2021
TIME
LST
Temp Definition
°C
Dew Point Definition
°C
Rel Hum Definition
%
Precip. Amount Definition
mm

Wind Dir Definition
10's deg

Wind Spd Definition
km/h
Visibility Definition
km
Stn Press Definition
kPa
Hmdx Definition


Wind Chill Definition


Weather Definition


00:00 1.2 -1.1 85 LegendMM 6 29   100.93     LegendNANA
01:00 1.2 -1.1 84 LegendMM 7 30   100.91     LegendNANA
02:00 1.1 -1.0 86 LegendMM 6 29   100.88     LegendNANA
03:00 0.6 -0.3 94 LegendMM 5 23   100.81     LegendNANA
04:00 0.5 -0.2 94 LegendMM 6 24   100.77     LegendNANA
05:00 1.2 0.0 91 LegendMM 5 25   100.79     LegendNANA
06:00 1.2 0.0 92 LegendMM 5 19   100.76     LegendNANA
07:00 1.7 -0.1 88 LegendMM 5 25   100.76     LegendNANA
08:00 1.9 0.0 87 LegendMM 6 25   100.73     LegendNANA
09:00 1.2 0.2 93 LegendMM 6 26   100.73     LegendNANA
10:00 1.1 0.3 94 LegendMM 5 26   100.71     LegendNANA
11:00 0.8 0.1 95 LegendMM 6 21   100.70     LegendNANA
12:00 0.5 0.0 96 LegendMM 6 24   100.66     LegendNANA
13:00 0.7 0.1 96 LegendMM 6 27   100.64     LegendNANA
14:00 0.4 -0.1 97 LegendMM 6 25   100.65     LegendNANA
15:00 0.5 0.0 97 LegendMM 5 20   100.62     LegendNANA
16:00 0.4 -0.1 96 LegendMM 5 23   100.59     LegendNANA
17:00 0.5 -0.1 96 LegendMM 5 25   100.56     LegendNANA
18:00 0.4 -0.1 96 LegendMM 5 24   100.56     LegendNANA
19:00 0.5 -0.2 95 LegendMM 5 23   100.54     LegendNANA
20:00 0.4 -0.2 96 LegendMM 5 24   100.54     LegendNANA
21:00 0.6 0.0 96 LegendMM 5 26   100.50     LegendNANA
22:00 0.5 -0.1 96 LegendMM 5 24   100.44     LegendNANA
23:00 0.6 0.0 96 LegendMM 5 23   100.41     LegendNANA

Notes on Data Quality.

Legend

  • E = Estimated
  • M = Missing
  • NA = Not Available*
  • [empty] = Indicates an unobserved value
Date modified: